Location: Buckland
(65.9785°N, 161.1281°W)
Time: 04:33:31
(UTC+00:00)

Transit 4A - Pass Details

Date: 28 November 2020
Orbit: 864 x 980 km, 66.8° (Epoch: 26 January)

Event Time Altitude Azimuth Distance (km) Brightness Sun altitude
Rises 18:06:37 0° 170° (S) 3,653 11.6 -10.6°
Reaches altitude 10° 18:09:50 10° 154° (SSE) 2,722 11.3 -10.3°
Maximum altitude 18:14:14 20° 110° (ESE) 2,099 10.9 -9.9°
Drops below altitude 10° 18:18:40 10° 66° (ENE) 2,744 10.8 -9.5°
Sets 18:21:55 0° 51° (NE) 3,692 11.3 -9.2°
